Regional Weather Roundup
Issued by NWS

Home | Current Version | Previous Version | Graphics & Text | Print | Product List | Glossary On
Versions: 1 2 3 4 5 6 7 8 9 10 11 12 13 14 15 16 17 18 19 20 21 22 23 24 25 26 27 28 29 30 31 32 33 34 35 36 37 38 39 40 41 42 43 44 45 46 47 48 49 50
000
ASUS43 KBIS 182210
RWRND

NORTH DAKOTA REGIONAL WEATHER ROUNDUP
NATIONAL WEATHER SERVICE BISMARCK ND
500 PM CDT MON SEP 18 2017

NOTE: "FAIR" INDICATES FEW OR NO CLOUDS BELOW 12,000 FEET WITH NO
SIGNIFICANT WEATHER AND/OR OBSTRUCTIONS TO VISIBILITY.


NDZ001>003-009>011-017-182300-
NORTHWEST NORTH DAKOTA

CITY           SKY/WX    TMP DP  RH WIND       PRES   REMARKS
WILLISTON      MOSUNNY   74  43  32 SE8       29.70F
MINOT          SUNNY     72  47  40 E9        29.76F
MINOT AFB      SUNNY     70  47  44 SE9       29.75F
$$

NDZ018>021-031>035-040>046-182300-
SOUTHWEST NORTH DAKOTA

CITY           SKY/WX    TMP DP  RH WIND       PRES   REMARKS
BISMARCK       SUNNY     73  47  39 CALM      29.79S
DICKINSON      MOSUNNY   74  37  26 S7        29.74F
GARRISON         N/A     70  45  40 VRB5      29.78S
HETTINGER ARPT SUNNY     75  37  25 S12       29.78F
$$

NDZ004>008-012>016-024-026-027-054-182300-
NORTHEAST NORTH DAKOTA

CITY           SKY/WX    TMP DP  RH WIND       PRES   REMARKS
GRAND FORKS    CLOUDY    68  56  65 E8        29.80F
GRND FRKS AFB  CLOUDY    70  55  60 E6        29.82F
DEVILS LAKE    CLOUDY    64  51  62 SE6       29.82S
$$

NDZ022-023-025-028>030-036>039-047>053-182300-
SOUTHEAST NORTH DAKOTA

CITY           SKY/WX    TMP DP  RH WIND       PRES   REMARKS
FARGO          SUNNY     66  56  70 SE17G26   29.82F
JAMESTOWN      SUNNY     71  49  45 W7        29.79S
$$





USA.gov is the U.S. government's official web portal to all federal, state and local government web resources and services.